Regional Weather Roundup
Issued by NWS

Home | Current Version | Previous Version | Graphics & Text | Print | Product List | Glossary On
Versions: 1 2 3 4 5 6 7 8 9 10 11 12 13 14 15 16 17 18 19 20 21 22 23 24 25 26 27 28 29 30 31 32 33 34 35 36 37 38 39 40 41 42 43 44 45 46 47 48 49 50
000
ASUS43 KDTX 220910
RWRMI
MICHIGAN HOURLY REGIONAL WEATHER ROUNDUP
NATIONAL WEATHER SERVICE DETROIT/PONTIAC MI
500 AM EDT WED MAR 22 2017

NOTE: "FAIR" INDICATES FEW OR NO CLOUDS BELOW 12,000 FEET WITH NO
SIGNIFICANT WEATHER AND/OR OBSTRUCTION TO VISIBILITY.

MIZ047>049-052>055-059>063-066>070-074>076-081>083-221000-
SOUTHEAST LOWER MICHIGAN

CITY           SKY/WX    TMP DP  RH WIND       PRES   REMARKS
ADRIAN         CLEAR     21  11  65 N14       30.43R WCI   8
ALMA           MOCLDY    21  10  60 N6        30.47R WCI  14
ANN ARBOR      CLEAR     21   8  57 NW10      30.42R WCI  10
BAD AXE        FLURRIES  22  10  60 N16       30.41R WCI   9
CARO           CLEAR     21  11  64 N10       30.42R WCI  10
DETROIT CITY   CLEAR     22   8  55 N12G20    30.41R WCI  10
DETROIT        CLEAR     24   9  52 N12       30.42R WCI  13
FLINT          CLEAR     20   8  60 N10       30.43R WCI   9
GROSSE ILE     CLEAR     23   9  55 N9        30.41R WCI  13
HILLSDALE      CLEAR     19  10  68 N9        30.39R WCI   9
HOWELL         CLEAR     20   8  61 N8        30.42R WCI  10

CITY           SKY/WX    TMP DP  RH WIND       PRES   REMARKS
JACKSON        CLEAR     20   8  60 N7        30.43R WCI  11
LAMBERTVILLE   CLEAR     24  10  53 N7        30.43R WCI  16
LANSING        CLEAR     19   8  62 N18       30.46R WCI   4
LAPEER         FAIR      21  10  64 NW8       30.41R WCI  11
MASON          CLEAR     20  11  67 N10       30.44R WCI   9
MONROE         CLEAR     24  12  62 N12       30.42R WCI  12
MT. CLEMENS    CLEAR     22  10  61 NW16      30.39R WCI   8
PONTIAC        CLEAR     20  32 100 NW13      30.39R WCI   7
PORT HOPE        N/A     24  11  57 N14G26    30.39R WCI  12
PORT HURON     CLEAR     21  10  63 NW7G20    30.39R WCI  13
TRI CITIES     CLEAR     20  11  68 N10       30.46R WCI   9
MIDLAND        FAIR      20   9  60 CALM      30.46S
TROY           CLEAR     23   7  52 NW12G17   30.42S WCI  11
SAGINAW HB     CLEAR     21   9  58 NW12      30.45R WCI   9
$$
MIZ043>046-050>051-056>058-064>065-071>073-077>080-221000-
SOUTHWEST LOWER MICHIGAN

CITY           SKY/WX    TMP DP  RH WIND       PRES   REMARKS
BATTLE CREEK   CLEAR     20   9  62 N9        30.45R WCI   9
BENTON HARBOR  CLEAR     23   6  48 NE9       30.48R WCI  13
BIG RAPIDS     MOCLDY    20   8  57 N8        30.45S WCI  11
COLDWATER      CLEAR     22   9  57 NE13      30.43R WCI   9
FREMONT        FAIR      21   8  58 N3        30.47S
HOLLAND        CLEAR     22   9  57 N6        30.49R WCI  14
GRAND RAPIDS   CLEAR     20   8  60 NW6       30.47R WCI  12
IONIA          FAIR      19  10  69 N5        30.46R WCI  12
KALAMAZOO      CLEAR     21   7  54 N12       30.46R WCI   9
LUDINGTON      CLOUDY    24  11  57 NE8       30.48S WCI  15
MARSHALL       CLEAR     21   9  59 N6        30.44R WCI  13
MOUNT PLEASANT CLOUDY    22   9  57 N3        30.46R
MUSKEGON       CLEAR     21  10  62 N8        30.50R WCI  11
SOUTH HAVEN    CLEAR     21  10  60 N8        30.49R WCI  12
$$
MIZ016>042-221000-
NORTHERN LOWER MICHIGAN

CITY           SKY/WX    TMP DP  RH WIND       PRES   REMARKS
ALPENA         CLEAR     18   3  52 N14G21    30.46R WCI   4
BEAVER ISLAND  MOCLDY    19   7  60 N8        30.52R WCI   8
BELLAIRE       CLOUDY    21   6  53 N7        30.50S WCI  12
CADILLAC       CLOUDY    20   7  58 N10G18    30.41R WCI   9
CHARLEVOIX     MOCLDY    21   8  57 N15       30.53R WCI   7
FRANKFORT      CLOUDY    24  10  54 NE5       30.50R WCI  18
GAYLORD        PTCLDY    18   3  52 VRB5      30.43R WCI  11
GRAYLING       CLEAR     17   5  60 N6        30.44R WCI   8
HARBOR SPRINGS PTCLDY    17   4  56 NE8       30.50R WCI   7
HOUGHTON LAKE  PTCLDY    19   6  57 N7        30.43R WCI  10
MANISTEE       FLURRIES  23  10  57 NE8       30.49S WCI  14
OSCODA         CLEAR     19   8  61 NW5       30.44R WCI  12
PELLSTON       PTCLDY    16   1  51 N12       30.51R WCI   3
ROGERS CITY    CLEAR     18   3  51 N13G20    30.49R WCI   5
TRAVERSE CITY  CLOUDY    24  10  55 N13G23    30.48R WCI  12
$$
MIZ007>008-015-221000-
EASTERN UPPER MICHIGAN

CITY           SKY/WX    TMP DP  RH WIND       PRES   REMARKS
KINROSS        PTCLDY    12  -1  56 N7        30.50R WCI   1
MACKINAC ISLAN CLEAR     14   0  53 N14G23    30.50R WCI  -1
NEWBERRY       CLEAR     14   6  72 N6        30.50S WCI   5
S. S. MARIE    PTCLDY    14  -3  47 NW7       30.50R WCI   4
MUNISING         N/A     20  10  65 N10       30.54R WCI   9
$$
MIZ004>006-011>014-085-221000-
CENTRAL UPPER MICHIGAN

CITY           SKY/WX    TMP DP  RH WIND       PRES   REMARKS
MANISTIQUE     CLEAR     16   5  62 N6        30.53R WCI   7
ESCANABA       CLEAR     18   8  65 N7        30.55R WCI   9
MENOMINEE        N/A    N/A N/A N/A MISG        N/A
SAWYER-GWINN   MOCLDY    17   7  63 N10       30.50S WCI   5
$$
MIZ001>003-009>011-084-221000-
WESTERN UPPER MICHIGAN

CITY           SKY/WX    TMP DP  RH WIND       PRES   REMARKS
IRON MOUNTAIN  CLEAR     12   2  64 W3        30.52R
HOUGHTON       PTCLDY    12   3  67 CALM      30.54R
COPPER HARBOR    N/A     20   8  60 NE10      30.56R WCI   9
IRONWOOD       CLEAR     14  10  84 CALM      30.55S
$$

ABBREVIATIONS USED IN REMARKS
   TC - TEMPERATURE IN CELSIUS
  WCI - WIND CHILL INDEX
   HX - HEAT INDEX
  VSB - VISIBILITY





USA.gov is the U.S. government's official web portal to all federal, state and local government web resources and services.